AI7R Weather Reports


Display with metric or nautical units.
time (UTC)temp
F
wind
direction
speed
MPH
gust
MPH
rain 1hr
in
rain 24hr
in
rain mn
in
humidity
%
barometer
mb
20260505151508 45 360 0.0 1.0 0.01 0.03 0.03 93 1006.3
20260505124507 44 360 0.0 0.0 0.00 0.02 0.02 91 1005.7
20260505123008 44 142 0.0 0.0 0.00 0.02 0.02 91 1005.6
20260505121506 44 142 1.0 5.0 0.00 0.02 0.02 90 1005.4
20260505120009 44 146 0.0 0.0 0.00 0.02 0.02 90 1005.7
20260505114507 44 146 0.0 2.0 0.01 0.02 0.02 89 1005.9
20260505113008 44 147 0.0 2.0 0.01 0.02 0.02 89 1006.1
20260505111506 44 360 0.0 0.0 0.01 0.02 0.02 88 1006.1
20260505101507 44 226 0.0 0.0 0.00 0.01 0.01 85 1006.9
20260505100009 44 273 0.0 2.0 0.01 0.01 0.01 85 1006.9
20260505093008 44 114 0.0 0.0 0.01 0.01 0.01 85 1006.9
20260505091507 44 360 0.0 1.0 0.01 0.01 0.01 82 1007.1
20260505090008 45 360 2.0 10.0 0.00 0.00 0.00 78 1007.4
20260505084507 48 360 2.0 13.0 0.00 0.00 0.00 70 1007.5
20260505083008 49 360 3.0 9.0 0.00 0.00 0.00 65 1007.5
20260505081506 49 360 2.0 7.0 0.00 0.00 0.00 65 1007.4
20260505074506 50 360 2.0 7.0 0.00 0.00 0.00 65 1007.7
20260505073008 50 360 2.0 8.0 0.00 0.00 0.00 65 1007.8
20260505071506 50 360 2.0 7.0 0.00 0.00 0.00 65 1007.8
20260505070011 50 360 2.0 7.0 0.00 0.00 0.00 66 1007.5
20260505064506 51 360 1.0 4.0 0.00 0.00 0.00 66 1007.6
20260505063007 51 360 1.0 4.0 0.00 0.00 0.00 65 1007.5
20260505060009 51 360 2.0 8.0 0.00 0.00 0.00 64 1007.9
20260505054506 51 360 2.0 8.0 0.00 0.00 0.00 63 1008.3
20260505053008 51 360 1.0 9.0 0.00 0.00 0.00 61 1008.5
20260505041507 53 200 1.0 5.0 0.00 0.00 0.00 53 1008.3
20260505034506 53 360 3.0 10.0 0.00 0.00 0.00 55 1008.2
20260505033008 53 360 2.0 8.0 0.00 0.00 0.00 52 1008.0
20260505031506 53 202 2.0 8.0 0.00 0.00 0.00 51 1008.0
20260505030008 54 360 2.0 9.0 0.00 0.00 0.00 48 1007.9
20260505024507 54 202 3.0 13.0 0.00 0.00 0.00 46 1007.8
20260505023007 54 165 3.0 10.0 0.00 0.00 0.00 43 1007.7
20260505021506 55 216 3.0 10.0 0.00 0.00 0.00 40 1007.6
20260505020008 55 360 3.0 11.0 0.00 0.00 0.00 38 1007.5
20260505014506 56 360 3.0 12.0 0.00 0.00 0.00 37 1007.4
20260505013008 56 360 4.0 11.0 0.00 0.00 0.00 38 1007.6
20260505010008 58 360 2.0 9.0 0.00 0.00 0.00 38 1007.5
20260505004506 59 360 3.0 14.0 0.00 0.00 0.00 37 1007.7
20260505003007 59 360 3.0 11.0 0.00 0.00 0.00 37 1007.6
20260505001506 59 216 3.0 11.0 0.00 0.00 0.00 36 1007.7
20260505000008 59 360 3.0 10.0 0.00 0.00 0.00 35 1008.0
20260504234506 59 360 4.0 11.0 0.00 0.00 0.00 33 1007.9
20260504233008 59 360 3.0 11.0 0.00 0.00 0.00 32 1008.2
20260504231506 59 178 4.0 12.0 0.00 0.00 0.00 32 1008.3
20260504230008 60 360 3.0 11.0 0.00 0.00 0.00 34 1008.3
20260504224506 60 360 4.0 13.0 0.00 0.00 0.00 34 1008.2
20260504223008 61 209 4.0 12.0 0.00 0.00 0.00 35 1008.2
20260504221507 61 360 3.0 12.0 0.00 0.00 0.00 38 1008.5
20260504220008 62 234 4.0 16.0 0.00 0.00 0.00 35 1008.9
20260504211506 62 360 5.0 13.0 0.00 0.00 0.00 36 1008.7
20260504203007 63 360 3.0 11.0 0.00 0.00 0.00 38 1008.7
20260504194505 61 237 3.0 10.0 0.00 0.00 0.00 43 1008.8
20260504191505 61 360 3.0 10.0 0.00 0.00 0.00 44 1008.9
20260504184505 59 360 3.0 9.0 0.00 0.00 0.00 48 1009.3
20260504181505 58 360 3.0 11.0 0.00 0.00 0.00 52 1009.2
20260504180007 57 360 3.0 9.0 0.00 0.00 0.00 51 1009.5
20260504173006 57 360 3.0 9.0 0.00 0.00 0.00 54 1009.1
20260504171505 56 360 2.0 7.0 0.00 0.00 0.00 55 1009.7